Theta_e
330 329 328 328 327 328 327 326 326 325 325 326 324 318 314 314 315 315 316 314 310 310 311 309 308 308 308 306 305 306 305 303 302 301 302 303 305 307 307 308 309 309 309 309 309 309 309 310 309 309 309 309 310 309 309 309 308 308 307 306 305 303 302 300 299 298 298 297 297 298 298 298 298 299
329 329 329 329 328 328 327 326 325 325 325 325 325 322 315 312 313 314 315 315 310 309 311 310 309 308 309 309 306 306 306 304 303 302 302 304 306 308 308 309 309 309 309 309 309 309 309 309 309 309 309 309 309 309 309 309 308 308 308 307 306 305 304 302 301 299 298 297 297 297 297 297 297 297
329 329 330 330 329 328 328 327 325 325 325 324 325 325 320 314 313 312 312 313 311 310 311 311 311 310 311 310 308 306 306 305 304 303 302 303 306 308 308 309 309 309 309 309 309 309 309 309 309 309 309 309 309 309 309 308 308 308 308 308 307 306 306 305 303 301 299 298 297 296 296 296 296 296
329 330 330 330 330 329 329 328 326 324 325 325 324 325 323 320 317 313 311 311 311 311 311 311 311 311 311 311 310 307 306 305 305 304 303 303 305 308 309 308 308 308 308 309 309 309 309 309 309 309 308 309 308 308 308 308 308 308 308 308 307 307 306 305 304 303 301 299 297 296 296 296 296 295
329 330 330 329 330 330 329 329 328 324 324 325 324 324 323 322 321 315 310 311 311 311 312 311 312 312 311 312 311 308 306 306 305 305 304 303 304 306 307 308 308 308 308 308 308 308 309 309 309 308 308 308 308 308 308 308 308 308 308 307 307 307 306 305 304 303 301 299 297 296 296 295 295 295
330 331 329 329 331 330 329 329 327 325 325 325 325 324 322 322 322 316 310 310 311 311 312 312 312 312 312 312 311 309 307 307 307 307 307 307 306 306 307 307 307 307 308 308 308 309 309 308 308 308 308 308 308 308 308 307 307 307 307 307 307 306 306 305 304 303 302 300 298 297 296 295 295 295
330 331 330 329 330 330 329 328 326 325 325 324 324 323 322 322 320 314 311 312 312 312 311 312 312 312 312 312 311 309 308 308 308 309 310 310 310 310 309 308 308 308 308 308 309 308 308 308 308 309 309 309 309 308 308 307 307 307 307 307 307 306 306 305 305 304 302 300 298 297 296 295 295 295
330 330 330 330 330 329 328 327 326 325 325 324 324 322 323 323 318 314 312 312 312 312 311 311 312 312 312 312 311 311 310 309 309 310 311 311 311 312 312 311 311 311 310 309 309 309 309 309 309 309 309 309 309 309 308 307 307 306 306 306 306 306 306 305 305 303 302 301 299 297 296 295 295 295
329 329 330 331 330 329 328 326 325 326 325 324 324 323 323 321 317 315 314 312 312 313 312 311 312 312 312 312 312 311 311 309 309 310 310 311 311 311 312 312 312 312 312 310 310 310 309 309 309 309 309 309 309 309 309 308 307 307 306 306 306 306 305 305 305 303 302 301 299 297 296 295 295 295
328 328 330 330 329 328 327 326 326 326 325 324 323 323 322 318 315 316 315 313 313 313 313 313 312 312 312 312 312 312 311 310 310 310 310 310 311 310 311 311 311 312 312 312 311 311 310 310 309 309 309 309 309 309 308 308 308 307 307 306 305 305 305 305 304 303 302 301 299 297 296 295 295 295
327 327 328 328 327 327 326 326 327 326 325 324 322 321 321 317 314 315 316 314 314 314 315 314 313 312 311 312 312 311 312 312 311 310 310 309 309 310 310 311 311 311 312 312 312 312 311 311 310 310 309 309 309 309 308 308 308 308 307 306 306 305 305 305 304 303 302 301 299 298 296 295 295 295
326 326 325 325 326 327 326 327 327 326 324 323 321 320 319 316 314 315 316 316 316 316 316 316 315 314 312 312 312 312 311 311 311 311 311 310 310 310 310 311 311 311 312 312 312 312 311 311 310 310 310 309 309 309 308 308 309 309 308 307 306 305 305 304 304 303 302 301 300 298 296 295 295 294
325 324 323 323 325 326 327 327 326 325 324 322 321 320 320 317 316 316 317 317 317 317 317 317 317 316 315 313 313 313 313 312 312 312 312 312 312 312 311 311 311 311 311 311 311 312 312 312 311 310 310 310 310 309 309 310 310 310 309 308 307 306 305 304 304 303 302 301 300 298 297 296 295 295
323 322 321 322 324 325 325 325 324 324 323 322 321 321 320 319 318 318 318 318 318 318 319 318 318 318 317 315 315 316 315 314 314 314 313 313 314 314 313 313 313 314 313 312 312 312 312 312 311 311 310 311 310 310 311 312 312 311 310 309 308 307 306 305 304 303 302 301 300 298 297 296 295 294
321 321 322 322 323 323 323 322 321 321 322 322 321 321 321 320 320 320 319 319 319 318 319 319 319 319 319 319 318 318 318 317 317 316 315 315 316 315 315 315 316 315 314 314 313 313 313 312 311 311 311 311 311 312 313 313 313 313 311 310 309 308 307 305 304 303 302 301 300 298 297 296 295 294
320 319 319 319 319 319 319 319 318 318 318 319 319 318 318 318 319 319 319 319 319 318 318 318 317 318 319 319 320 320 319 319 318 318 318 317 316 316 316 315 315 315 315 315 314 314 314 313 312 312 312 312 313 313 314 314 314 313 312 311 310 309 307 305 304 303 302 302 301 299 297 296 295 294
318 317 316 316 317 317 318 317 317 317 317 318 318 318 317 317 317 317 317 316 316 316 316 316 314 314 314 315 316 317 317 317 318 318 319 319 319 318 318 317 317 317 316 314 313 313 314 314 314 314 315 315 314 314 314 314 314 313 313 311 310 309 308 306 304 303 303 302 301 298 296 295 294 294
318 318 318 318 318 318 319 319 318 318 320 321 321 321 321 321 321 320 319 318 318 317 317 316 316 315 315 314 314 314 314 315 316 317 318 318 318 318 318 319 319 319 318 317 315 314 315 316 315 315 316 316 315 315 315 315 314 313 312 311 310 309 308 306 304 303 303 302 300 298 296 295 295 294
320 319 319 319 319 319 319 320 320 320 321 321 320 320 320 321 322 322 321 321 321 320 320 319 319 319 318 317 317 317 316 317 317 318 318 318 318 318 318 318 319 319 319 319 318 318 318 318 316 316 317 316 315 315 315 314 314 314 313 312 311 310 308 306 304 303 303 302 300 297 296 295 295 295
321 321 321 321 320 320 319 319 320 320 320 320 319 319 319 320 321 321 321 322 322 322 322 321 321 320 320 319 318 318 318 318 318 318 318 318 318 318 318 318 319 318 318 318 320 319 319 318 318 318 318 316 315 315 315 315 315 315 314 313 312 311 309 306 304 304 304 302 299 297 296 296 296 297
321 319 320 320 320 319 318 316 317 317 318 318 317 316 316 317 318 319 320 320 321 321 321 321 321 321 321 321 321 320 320 320 320 319 319 319 319 318 318 317 318 318 317 318 320 319 319 319 318 318 317 317 316 316 316 316 315 315 315 313 312 312 309 305 304 304 303 300 298 297 296 297 297 297
317 315 313 314 314 314 312 311 311 311 311 311 310 309 308 308 308 309 311 313 315 316 317 317 317 318 318 318 318 318 318 317 316 315 314 315 318 318 317 317 317 318 317 318 319 319 319 319 318 318 317 316 316 316 316 316 316 315 314 313 312 311 308 305 304 303 302 299 297 297 297 297 297 297
312 310 309 309 309 309 308 307 308 307 307 306 304 303 301 300 300 300 300 301 302 304 305 306 306 307 307 307 306 306 307 307 306 306 308 311 315 318 317 317 317 317 317 318 318 318 318 319 319 318 315 313 315 315 315 315 315 315 314 313 313 311 306 303 303 302 300 299 297 297 297 297 297 297
309 308 308 307 307 307 307 306 305 303 302 301 300 299 298 298 298 298 297 298 298 298 299 299 299 299 299 299 299 299 299 299 300 302 305 308 312 315 316 317 316 316 317 317 317 317 318 318 317 316 314 313 313 313 313 314 313 313 313 311 310 307 304 303 302 301 299 298 298 297 297 297 297 296
307 306 305 305 304 304 303 302 300 299 298 297 297 297 298 298 298 299 299 300 301 302 302 302 302 302 302 303 303 303 303 302 302 303 304 305 306 308 310 312 314 315 314 314 315 316 316 316 316 315 313 313 312 312 312 311 310 310 309 307 304 303 302 302 301 299 298 298 297 297 297 297 297 297
303 302 302 301 300 300 299 298 297 297 297 298 299 299 300 301 301 302 303 304 304 304 304 305 305 306 306 306 306 306 306 306 306 305 306 307 306 306 306 308 311 312 310 309 312 315 315 314 314 314 313 312 311 311 310 308 306 307 307 305 304 303 302 301 300 299 298 298 297 297 297 297 296 296
300 300 299 298 298 297 297 298 299 299 300 301 302 303 303 304 304 304 304 304 304 304 305 306 306 306 305 304 305 305 306 305 305 305 306 306 306 306 306 308 309 311 311 311 313 314 314 313 313 313 313 312 310 309 307 306 305 305 305 305 303 302 302 301 300 299 298 298 298 298 297 297 296 296
299 298 297 298 298 299 300 301 301 302 302 303 304 304 304 305 305 304 304 304 304 304 305 305 305 304 302 302 303 303 303 303 304 304 304 305 305 304 305 305 307 309 311 312 313 314 313 313 313 312 312 311 309 307 306 306 305 305 305 302 300 301 302 302 300 299 299 299 299 298 298 297 296 296
298 297 298 300 301 302 302 302 303 302 303 303 303 303 303 303 303 303 303 303 303 303 303 303 302 301 301 301 301 301 301 302 302 302 302 303 303 303 302 303 305 307 309 310 311 311 311 311 311 310 309 308 307 306 306 305 304 304 303 301 300 301 302 301 300 299 299 299 299 299 298 297 296 296
298 299 300 302 302 302 302 302 302 302 301 301 301 301 301 301 301 301 301 301 301 301 300 300 300 300 300 300 300 300 300 300 301 301 301 301 301 301 300 300 302 305 306 306 307 307 307 307 307 307 306 305 305 304 304 304 303 302 302 302 302 302 301 300 300 300 299 299 299 298 297 297 296 296
300 301 301 301 301 301 301 301 301 301 300 300 300 300 300 300 300 300 300 300 299 299 299 299 299 299 299 299 299 299 299 299 299 299 300 300 299 299 299 298 299 302 303 303 304 304 304 304 305 304 304 304 304 303 302 302 302 301 301 302 302 301 301 300 300 299 299 299 298 297 296 296 296 296
301 301 301 301 300 300 300 300 300 300 300 300 300 300 300 299 299 299 299 299 299 298 298 298 298 298 298 298 297 297 297 297 298 298 298 298 298 298 298 298 299 300 301 302 302 302 303 303 303 302 303 303 303 302 301 300 300 300 300 301 301 301 301 300 299 298 298 297 297 296 296 296 296 296
300 300 300 300 300 300 300 300 299 299 299 299 299 299 299 299 299 299 298 298 298 298 297 297 297 296 296 296 296 296 295 295 295 295 296 296 297 297 298 298 299 299 300 300 300 301 301 301 301 301 301 301 302 301 300 299 299 299 299 300 300 300 300 299 298 297 296 296 296 296 296 296 296 296
300 300 300 299 299 299 299 299 299 298 298 299 298 298 298 298 298 298 298 297 297 296 296 296 295 295 294 294 294 293 293 293 294 294 294 295 295 296 298 298 299 298 298 299 299 299 300 300 300 300 300 300 300 300 299 299 299 299 299 299 299 298 298 297 297 297 296 296 296 296 296 296 296 296
299 299 299 299 299 298 298 298 298 298 298 298 297 297 297 297 297 297 296 296 295 295 295 295 294 293 292 292 292 292 292 293 293 294 294 295 295 296 297 298 298 298 298 298 299 299 299 299 298 298 298 298 298 298 298 298 298 298 299 298 298 297 296 296 296 296 296 296 295 295 296 296 295 295
299 299 298 298 298 298 298 297 297 297 297 297 297 297 296 296 295 295 294 294 294 294 293 293 292 291 291 291 291 292 292 293 293 293 294 295 295 296 296 297 297 297 297 298 299 299 299 298 297 297 296 296 296 297 296 296 296 297 298 297 296 296 296 296 296 296 296 295 295 295 295 295 295 295
298 298 297 297 297 297 297 296 296 296 296 296 296 296 295 295 294 294 294 294 293 292 291 291 291 291 291 291 291 292 292 292 293 293 293 294 295 295 296 296 297 297 297 298 298 298 297 296 296 296 295 296 298 298 297 295 296 297 297 297 296 296 296 296 296 295 295 295 295 294 295 295 295 295
297 297 296 296 296 296 296 296 295 295 295 295 295 294 294 294 294 293 293 293 292 291 291 291 291 291 291 291 291 292 292 292 292 293 293 293 294 294 295 295 296 296 297 298 298 297 296 295 296 296 296 296 298 298 296 295 295 296 296 296 296 296 296 296 295 295 295 294 295 294 295 295 295 295
296 296 296 295 295 295 295 295 295 295 295 294 294 293 293 293 293 292 292 292 291 291 291 291 291 291 291 291 291 291 292 292 292 292 292 292 293 293 294 294 295 295 296 296 296 295 295 295 296 296 296 296 296 296 295 294 294 295 296 296 295 295 295 295 295 294 294 294 294 295 295 295 295 294
295 295 295 294 294 294 294 294 294 294 294 294 293 293 293 292 292 292 291 291 291 291 291 291 291 291 291 291 291 291 291 291 291 291 291 292 292 292 293 293 294 294 294 294 293 293 293 294 294 295 295 295 295 295 295 294 294 294 295 295 295 295 295 294 294 294 294 294 294 294 294 293 293 293
294 294 293 293 293 293 293 293 294 294 293 293 293 293 292 292 291 291 291 291 290 290 290 290 290 290 290 291 291 291 291 291 291 291 291 292 292 292 292 292 293 293 293 292 292 292 292 293 293 293 294 294 295 295 295 294 294 294 294 294 294 294 294 294 294 294 294 294 294 293 293 292 292 292
293 293 292 292 292 293 293 293 293 293 293 293 293 292 292 291 290 290 290 290 290 290 290 290 290 290 290 291 291 291 291 291 291 291 291 291 292 292 292 292 292 292 292 292 292 292 292 292 293 293 293 294 294 295 294 294 294 294 294 293 293 293 294 294 294 294 294 294 293 293 292 292 292 291
292 292 292 291 291 292 293 293 293 293 293 293 293 293 292 291 290 290 290 290 290 290 290 290 290 290 290 290 290 291 291 291 291 291 291 291 291 291 292 292 292 292 292 292 292 292 292 293 293 293 293 293 294 294 294 294 294 294 293 293 293 293 293 294 294 293 293 293 292 292 292 292 291 291
292 292 291 291 291 292 293 293 293 293 293 293 293 293 292 291 291 291 290 290 290 290 290 290 290 290 290 290 290 291 291 291 291 291 291 291 291 291 291 292 292 292 292 292 292 293 293 293 293 293 293 293 293 293 293 293 294 294 293 293 293 293 293 294 293 293 293 292 292 293 293 292 292 291
292 291 291 291 291 292 292 292 292 292 293 293 292 292 292 291 291 291 291 291 290 290 290 290 290 290 290 290 290 291 291 291 291 291 291 291 291 291 292 292 292 292 292 292 292 293 293 293 293 293 293 293 293 293 293 293 294 294 293 293 293 293 294 294 294 293 293 293 293 293 293 293 292 292
Wind_Speed
20 18 18 16 15 17 17 17 17 20 23 18 15 23 26 20 10 3 4 5 8 19 21 15 13 13 11 12 15 14 15 16 16 16 16 16 17 17 16 16 16 14 14 13 12 11 10 10 9 8 8 7 7 7 7 7 7 7 7 7 7 7 7 7 7 7 7 8 8 8 9 10 10 11
19 19 19 16 15 16 16 17 18 19 22 20 17 17 21 23 19 10 6 5 10 20 21 16 15 16 14 13 14 15 15 15 16 16 16 17 17 17 16 15 14 13 12 11 10 9 8 7 6 5 5 4 4 4 4 4 4 4 5 5 6 6 6 6 7 7 7 8 9 9 9 9 10 10
19 19 19 18 16 16 16 17 17 18 20 22 19 15 15 18 20 19 13 5 11 24 22 16 16 17 16 15 14 16 16 15 15 15 16 17 17 16 16 15 13 12 11 10 9 8 7 6 5 4 3 2 2 1 1 1 2 2 3 3 4 4 5 6 6 7 7 7 8 9 10 10 10 10
18 19 19 19 18 16 16 16 15 17 19 21 20 16 14 12 14 20 20 10 12 23 24 20 18 18 17 16 15 16 17 16 15 15 15 16 17 17 16 15 14 13 12 10 9 8 7 6 5 5 4 4 3 3 3 3 3 3 3 4 4 4 5 5 6 7 7 8 8 9 10 10 10 10
18 18 19 18 16 16 17 16 15 17 19 20 19 17 15 11 11 17 23 17 13 18 22 22 21 20 19 17 16 17 18 18 17 16 16 15 16 17 16 16 15 14 13 12 11 10 9 9 8 7 7 6 6 6 6 6 6 6 6 6 6 6 6 6 6 7 7 8 9 9 10 10 10 10
17 16 18 17 14 15 17 17 17 19 20 20 19 18 16 12 13 18 25 21 16 17 22 25 24 22 21 18 17 18 20 20 18 18 18 17 16 17 17 17 17 16 15 14 13 13 13 12 12 11 10 9 8 8 8 9 9 8 8 8 8 8 8 8 8 7 8 8 9 10 10 11 11 11
16 15 17 16 15 16 17 17 18 19 19 19 19 19 17 13 13 22 25 21 19 19 22 26 26 25 23 18 16 18 19 19 19 20 19 19 18 18 18 19 18 18 18 17 17 18 17 17 16 14 13 12 11 11 11 11 10 10 10 10 10 10 10 10 9 9 8 9 9 10 11 11 11 11
16 17 17 16 16 17 17 17 18 17 17 18 19 18 16 15 14 22 25 23 21 21 23 26 27 28 25 20 17 18 20 21 21 20 19 19 20 20 20 21 20 19 18 18 19 20 21 21 19 18 17 16 14 14 13 13 12 12 12 13 13 12 12 11 11 10 9 9 9 10 11 11 11 11
15 18 18 17 18 18 17 17 18 17 15 16 17 15 15 17 14 17 22 24 22 21 25 26 27 27 25 22 21 21 23 25 25 23 22 22 21 21 22 23 22 21 19 20 21 22 23 23 23 22 21 19 17 16 15 15 15 15 15 15 15 14 14 13 12 12 11 10 10 11 11 11 11 11
15 19 18 17 18 18 18 18 15 13 12 14 16 13 15 18 15 14 19 24 21 21 23 24 25 28 26 23 24 25 26 27 28 28 27 26 25 24 25 26 26 24 24 23 23 24 25 26 26 25 24 22 20 19 18 17 17 17 17 17 16 16 15 15 14 13 12 11 11 11 11 12 11 11
16 18 16 16 17 18 19 16 12 8 6 10 12 7 12 18 17 14 17 22 21 18 18 17 20 25 27 24 23 26 28 28 28 30 29 29 29 28 28 29 29 28 28 27 26 26 27 28 28 28 26 25 23 21 20 20 19 19 19 18 18 18 17 16 16 15 14 12 12 12 12 12 12 11
15 14 13 12 14 17 17 12 10 8 4 5 8 3 4 15 18 15 17 20 20 16 15 16 16 18 23 24 21 20 25 27 27 28 29 28 29 30 30 31 31 31 31 31 30 30 30 31 31 30 29 27 25 24 23 22 21 20 20 19 19 19 19 18 17 16 15 13 12 12 11 11 12 11
17 14 12 11 11 14 14 10 9 9 5 4 7 6 4 8 13 14 14 15 15 13 10 12 14 14 19 24 21 17 21 26 26 27 29 29 29 30 31 31 31 32 33 33 33 33 32 32 32 32 31 29 27 26 25 24 23 22 21 20 20 20 20 20 19 17 16 14 12 12 11 11 11 11
18 15 13 12 11 12 11 9 9 9 5 3 5 6 5 7 10 11 10 10 9 8 7 5 6 8 11 15 17 15 17 20 21 23 27 27 25 25 25 24 22 25 28 31 32 31 30 30 32 32 31 29 28 28 27 26 25 24 22 21 20 21 22 21 20 19 17 15 13 12 12 11 11 11
17 17 16 15 13 12 10 8 7 7 5 4 4 5 5 4 5 7 7 6 5 5 6 4 3 2 1 2 4 6 8 9 10 13 16 17 17 18 17 14 13 15 19 23 26 25 24 27 30 32 31 30 29 28 27 26 25 25 24 23 22 23 23 23 22 20 18 16 14 13 12 12 12 12
18 19 19 17 15 13 11 9 7 6 6 5 3 4 4 3 3 3 3 3 2 1 1 0 1 1 2 3 3 3 4 5 7 8 9 11 12 13 14 14 15 16 15 19 23 23 22 23 27 30 30 30 30 29 28 27 26 26 26 26 25 24 25 25 23 21 19 17 14 13 12 12 12 12
22 22 20 18 16 14 12 10 9 7 7 7 6 6 6 5 4 3 2 1 1 2 4 5 5 6 6 8 8 8 9 10 11 11 11 12 12 13 14 15 17 18 16 17 22 24 23 24 27 29 29 29 30 28 27 27 26 26 28 28 27 26 26 26 24 22 20 18 15 13 11 12 12 11
21 21 20 19 17 15 13 12 10 10 9 10 9 9 8 8 7 6 4 3 2 3 4 6 7 8 8 10 11 11 12 12 13 13 14 14 15 16 17 18 18 16 15 16 18 21 22 22 27 29 28 28 30 28 26 26 26 27 28 29 28 28 28 27 25 23 21 18 15 12 10 11 11 10
19 18 17 17 16 15 14 12 11 10 9 9 8 8 7 7 5 5 4 2 1 2 3 5 7 8 8 10 11 11 12 13 13 14 15 16 18 20 21 22 22 20 19 19 18 19 20 20 24 28 26 26 29 28 25 25 26 27 28 30 30 30 28 28 26 24 21 18 14 11 9 10 9 7
18 16 15 15 14 13 13 11 9 8 6 5 5 4 4 4 4 3 3 1 1 3 4 6 8 9 10 10 11 12 13 14 15 17 19 20 22 23 23 23 24 25 25 24 23 23 23 23 24 27 27 26 28 28 26 27 27 27 29 30 31 31 30 29 27 24 22 18 13 9 8 7 5 2
18 16 14 13 12 12 11 9 7 5 3 2 2 2 1 1 1 0 1 2 3 4 6 7 8 9 11 12 13 14 14 16 17 19 21 23 24 24 22 21 24 28 28 26 24 25 26 25 25 27 29 28 27 26 26 28 29 28 29 31 32 33 33 31 27 24 22 17 11 8 7 6 4 0
17 16 14 12 11 10 9 7 5 4 3 3 3 4 4 4 5 6 7 8 9 9 10 10 11 12 13 14 16 16 17 18 18 20 22 23 23 23 21 21 24 27 27 27 24 24 28 29 28 28 26 24 26 27 27 29 29 28 29 31 33 35 36 32 28 24 21 15 11 9 9 7 4 2
16 14 13 11 11 9 8 6 5 5 5 5 6 7 8 8 8 8 10 11 12 13 14 15 16 16 17 19 20 20 21 21 20 20 21 22 23 25 25 25 22 18 20 24 23 24 29 31 29 25 18 14 19 23 25 28 30 29 30 33 36 38 36 31 27 24 19 14 12 11 10 8 5 3
14 12 10 9 9 7 6 5 6 6 7 8 8 8 8 8 8 9 9 10 11 13 14 15 16 17 17 19 19 20 20 20 18 17 18 20 23 25 27 27 23 18 21 26 24 23 27 26 23 21 16 11 11 16 22 27 28 28 31 35 37 37 33 29 26 22 17 14 13 13 11 9 7 5
11 9 8 7 6 6 6 7 8 8 8 8 7 6 6 6 7 8 9 10 11 12 12 13 13 14 14 15 16 16 16 15 15 15 16 18 20 22 25 27 26 26 29 30 26 26 27 24 23 24 21 16 16 19 23 24 22 24 28 31 31 30 28 28 24 20 16 15 15 15 12 10 8 8
8 7 6 6 6 6 7 7 7 7 7 6 6 6 6 7 8 9 10 11 12 13 14 14 15 16 18 19 19 18 17 16 15 16 16 15 17 18 20 22 25 29 33 32 29 28 27 26 26 25 22 20 19 19 19 15 13 16 20 23 25 26 27 26 21 17 16 16 16 16 14 11 9 9
7 6 6 7 6 5 6 7 7 8 9 9 9 8 7 8 8 9 10 12 12 13 15 16 17 18 20 21 20 19 18 16 15 15 15 16 17 19 20 20 20 24 30 32 31 30 27 25 24 21 20 20 16 12 12 10 10 13 15 19 24 26 26 24 20 17 16 16 16 17 15 12 11 10
8 6 6 8 9 10 11 11 11 10 10 10 9 9 9 9 10 11 12 13 14 15 16 17 18 18 19 18 18 18 17 17 16 16 17 18 20 21 22 22 21 21 23 25 27 27 26 26 25 21 19 18 14 10 10 11 13 16 16 18 21 24 24 22 22 20 17 16 17 18 18 16 14 13
9 8 9 12 13 13 12 12 12 12 12 13 13 12 12 13 13 14 14 15 15 16 17 17 17 18 18 17 17 17 17 18 19 20 21 22 23 24 25 24 22 21 20 20 20 20 18 19 19 18 15 13 11 11 13 12 12 16 18 19 21 23 23 22 22 21 18 17 18 19 18 17 14 14
10 11 13 13 13 13 13 13 14 15 15 15 16 16 16 16 16 16 17 17 18 17 17 17 17 17 18 17 17 18 19 20 21 23 25 26 27 28 29 27 24 20 17 17 16 16 15 14 13 11 10 9 8 9 11 11 11 13 17 20 20 20 21 22 22 21 19 17 17 16 15 13 12 13
14 15 14 14 14 15 16 15 15 14 14 14 14 15 15 15 15 15 16 17 18 18 18 18 18 19 19 19 20 21 21 21 20 21 23 25 26 27 28 28 25 20 16 13 12 12 12 11 10 8 8 9 8 7 8 11 15 16 18 21 21 18 19 23 23 20 18 17 16 16 15 12 12 12
16 16 17 17 17 17 16 16 15 14 14 15 15 15 15 15 15 14 14 15 17 18 18 19 20 21 22 22 23 24 23 22 21 20 20 22 24 25 25 25 23 21 18 15 12 10 9 9 8 8 7 8 9 8 8 11 15 19 19 19 19 18 19 22 21 18 17 20 19 17 14 12 10 10
16 16 17 17 17 17 17 17 17 17 16 16 16 16 16 16 16 15 16 17 18 19 19 20 21 22 23 24 24 25 25 25 24 23 21 20 21 22 22 22 21 20 19 16 13 11 9 8 7 7 6 7 7 9 11 11 12 15 15 14 15 16 18 21 21 19 19 20 18 14 12 10 7 6
15 17 18 20 20 19 19 19 19 18 17 17 17 17 17 17 16 16 17 18 18 19 20 21 22 22 23 24 24 24 25 25 25 24 22 19 18 18 19 21 21 21 20 16 12 10 8 7 7 7 6 5 4 6 9 9 8 8 9 11 16 20 20 20 20 18 16 15 12 10 10 7 4 5
17 19 21 22 22 21 21 20 19 18 18 18 18 17 17 17 16 16 16 17 18 19 20 20 21 21 21 22 23 24 25 25 25 25 23 20 17 16 17 19 20 22 22 18 14 12 10 9 8 8 7 6 5 5 5 6 5 4 5 10 18 22 21 18 16 14 11 9 7 7 9 6 3 5
21 21 21 21 21 20 20 19 18 18 18 18 18 17 17 17 16 16 16 16 17 19 19 19 19 20 21 22 23 24 24 25 25 25 23 21 18 16 16 17 19 21 22 19 16 14 12 10 9 9 8 7 6 4 3 2 1 2 8 16 20 21 19 16 13 11 9 7 6 6 7 5 3 6
20 20 20 20 19 19 18 17 16 17 17 17 16 16 16 16 15 14 15 17 17 17 17 18 19 20 21 22 23 24 24 24 24 24 23 21 18 16 16 16 18 20 19 15 11 10 9 8 7 7 6 5 4 2 1 2 3 3 10 18 19 18 17 15 12 9 6 5 5 5 6 5 5 8
18 19 19 19 18 18 17 16 14 14 14 14 15 15 15 14 14 14 16 17 17 17 18 19 20 21 21 22 23 23 23 23 22 22 21 21 19 17 15 14 14 14 12 7 4 4 3 2 3 4 3 3 3 2 2 5 6 7 9 13 14 15 13 10 8 6 4 5 5 6 7 8 8 9
17 16 17 17 16 15 16 16 14 14 13 14 14 15 15 14 13 14 15 16 16 17 17 18 19 19 19 20 19 19 18 19 20 20 20 19 19 18 16 13 11 9 8 8 8 7 8 7 5 4 2 1 1 2 3 8 11 10 9 8 8 9 7 5 5 6 4 4 6 8 8 7 8 11
17 15 14 14 13 13 15 15 14 14 14 14 14 15 15 14 13 13 15 15 15 16 16 16 17 16 17 17 16 16 16 16 17 18 18 17 17 17 16 15 14 13 14 15 15 14 12 11 9 8 6 6 5 3 6 11 12 11 9 7 6 5 5 4 6 7 4 2 4 5 5 6 9 13
16 15 14 12 11 12 15 15 14 14 13 13 13 14 14 13 13 14 15 15 15 16 15 15 15 15 15 15 16 15 16 16 17 17 17 17 17 17 16 16 15 14 15 15 14 13 11 9 6 5 3 2 3 4 7 8 8 7 7 7 8 7 6 5 6 6 5 4 4 6 7 6 8 12
13 13 12 9 8 10 14 14 13 13 13 11 11 11 12 13 15 16 17 17 17 16 15 14 14 14 14 14 14 15 16 16 17 16 17 17 17 17 16 16 16 15 14 13 12 10 8 6 5 4 2 1 1 1 2 5 6 6 5 6 8 9 8 6 5 4 3 2 3 4 5 5 5 7
11 10 9 7 6 8 10 11 11 12 11 10 10 10 11 14 16 15 15 16 16 15 15 15 14 15 15 15 14 14 15 16 16 16 16 16 16 17 16 15 14 14 12 11 10 8 7 6 5 4 3 2 1 1 2 5 8 8 6 6 10 10 7 6 4 3 2 3 4 3 4 4 3 3
10 10 9 8 8 9 10 11 11 11 10 10 9 9 9 11 12 11 10 11 12 13 13 14 14 15 15 15 15 15 15 15 15 15 15 15 15 16 16 14 13 13 12 11 11 10 10 8 6 6 6 6 4 3 2 4 10 11 8 8 11 11 9 7 6 5 5 6 6 4 2 2 2 2
10 9 9 9 10 11 11 11 11 10 9 9 8 8 8 8 7 7 7 9 10 11 11 11 12 14 14 14 15 15 14 14 15 15 15 16 16 15 15 15 14 13 12 12 12 12 12 10 8 7 6 4 4 5 5 2 8 11 10 9 11 11 9 7 6 6 6 6 5 3 2 1 1 2
Wind_Direction
187 182 185 189 184 185 189 189 190 189 189 187 175 171 168 161 160 164 187 194 153 156 164 160 165 175 169 169 175 174 169 164 165 166 165 164 160 159 158 155 153 151 149 148 144 141 138 133 128 122 116 108 101 94 87 80 73 67 62 56 51 45 38 31 22 13 3 357 354 350 347 344 343 342
190 184 184 189 183 182 188 189 188 189 194 195 184 183 181 173 172 170 167 185 161 158 168 174 176 180 178 177 179 179 176 171 171 173 172 171 168 166 166 163 163 163 161 161 159 155 154 150 145 139 131 122 112 102 91 80 68 58 51 43 38 33 27 23 17 10 1 353 350 348 342 337 335 333
192 187 186 189 185 182 185 188 193 194 197 199 194 197 197 185 186 182 165 157 168 166 170 181 189 190 185 181 182 182 183 180 178 181 181 180 178 176 176 176 177 180 180 181 181 181 182 180 181 182 179 179 171 147 82 43 28 21 17 13 13 9 8 8 6 2 359 351 345 343 338 334 331 330
195 192 191 189 185 185 187 190 198 198 198 201 201 206 205 199 206 193 172 154 167 173 177 182 189 193 186 182 186 187 186 186 187 189 189 189 189 189 189 191 194 197 200 201 204 207 210 215 222 226 232 241 250 264 280 290 297 304 315 324 330 335 340 346 349 352 351 348 342 337 334 331 329 328
192 192 192 189 187 190 192 195 201 200 199 200 205 214 212 215 231 202 174 161 158 169 181 187 188 189 186 185 191 193 189 189 192 195 196 199 203 204 205 206 208 213 217 220 224 227 230 234 239 245 251 257 265 274 279 282 284 286 291 297 304 310 315 321 330 336 340 342 339 334 330 327 326 327
184 184 186 186 190 195 196 198 199 198 200 202 209 214 213 230 236 199 175 166 160 161 174 182 183 185 188 188 191 194 192 192 196 197 198 204 211 217 219 220 222 225 228 232 234 238 241 242 243 246 250 256 263 272 277 279 279 279 283 287 290 296 301 306 312 320 328 332 332 330 328 325 324 324
181 181 184 185 190 194 197 199 196 195 200 204 208 208 212 233 219 187 179 174 165 160 168 178 181 182 189 196 196 196 195 197 200 202 204 208 212 219 223 227 234 236 238 241 243 244 244 242 242 243 246 251 257 264 271 274 275 276 280 282 283 285 289 294 298 304 313 321 324 325 325 323 323 323
184 184 183 186 190 189 194 198 195 195 198 200 205 209 223 237 206 179 183 183 172 163 167 180 187 185 191 203 205 200 199 202 206 208 213 215 216 221 225 229 236 240 240 239 238 240 241 241 241 242 244 248 253 261 267 269 272 276 278 279 278 279 280 284 288 294 302 310 315 318 320 320 321 320
187 183 182 185 187 188 193 195 194 199 204 206 209 219 237 235 204 178 185 187 182 175 170 178 190 191 193 201 205 205 204 205 207 210 216 221 224 227 230 233 238 239 237 234 233 236 239 241 243 244 246 248 252 259 263 267 271 274 276 276 274 274 275 277 282 286 292 301 307 311 314 316 316 316
186 183 183 184 186 190 193 191 192 201 213 216 217 236 248 227 192 171 184 190 190 189 181 178 187 195 197 198 202 208 210 208 207 209 215 221 227 230 231 234 238 239 239 237 236 239 242 243 244 245 247 248 252 257 261 265 269 271 272 273 272 271 270 272 275 280 285 292 299 304 308 311 313 313
184 180 182 185 187 190 189 189 191 191 202 214 213 241 251 219 187 159 173 188 190 189 191 190 188 196 203 203 203 210 215 214 211 211 212 218 226 232 235 237 238 239 240 241 242 244 246 248 247 246 247 249 252 256 259 263 267 269 270 271 270 268 266 267 269 272 277 283 291 298 304 308 311 312
181 171 168 176 186 189 188 191 198 189 165 180 178 148 229 209 191 163 160 178 184 182 196 206 198 198 208 212 212 211 209 210 213 215 215 218 225 230 233 239 241 240 240 243 245 246 248 249 247 244 244 247 251 253 257 260 263 265 266 267 268 266 264 262 263 266 269 274 283 292 299 306 308 309
172 159 150 156 168 183 190 194 199 195 172 138 142 118 109 163 169 160 152 160 167 167 182 200 196 197 208 214 217 212 202 205 216 221 220 225 234 235 234 238 243 245 244 243 243 246 248 248 245 242 241 245 250 252 255 258 261 262 263 264 266 265 263 261 260 261 263 267 276 287 293 300 303 304
156 148 142 147 157 172 184 184 184 189 184 137 118 118 119 124 132 141 139 129 132 134 127 144 174 189 201 208 217 223 218 216 220 218 217 225 235 236 234 236 242 246 246 243 244 248 250 246 242 240 243 248 251 253 256 260 263 264 263 263 264 263 262 259 257 258 258 261 271 281 288 295 299 300
149 147 143 148 156 159 159 154 152 156 162 158 123 118 132 135 124 128 128 119 112 111 107 99 95 104 138 193 225 246 247 239 234 228 230 237 235 227 228 237 244 240 237 238 243 249 252 249 244 242 245 250 252 255 259 262 265 266 264 262 261 260 258 256 254 255 255 258 267 277 286 293 296 298
149 144 143 144 145 145 144 142 137 131 131 136 131 113 112 126 140 133 120 125 136 142 150 185 357 344 318 320 320 315 316 309 299 293 286 279 268 255 252 258 262 259 248 237 237 244 250 249 246 246 251 254 254 256 259 260 261 263 264 262 258 256 254 252 251 251 251 255 264 275 284 291 294 297
147 139 142 141 133 132 138 140 135 128 117 111 108 101 89 77 71 62 42 33 331 303 305 307 308 309 308 305 304 309 313 312 312 313 310 306 304 299 290 282 282 283 271 246 237 240 244 244 245 249 256 260 259 259 260 260 260 261 261 260 257 253 251 249 248 247 247 251 259 269 280 288 291 293
140 138 140 135 125 124 128 129 128 127 123 118 115 110 98 80 63 56 53 47 21 330 316 313 308 310 310 303 302 305 305 303 304 303 302 301 300 298 295 290 288 285 272 252 241 241 245 244 242 246 253 256 254 254 255 257 260 262 261 260 257 252 248 245 244 243 243 247 256 265 277 287 292 293
127 132 134 127 123 125 124 121 125 129 130 130 126 119 107 92 77 69 66 62 10 296 292 292 290 291 292 291 291 293 295 296 297 294 294 294 293 291 289 285 281 277 270 264 254 252 259 256 246 250 257 254 250 250 248 247 252 258 259 259 257 254 248 242 238 237 239 244 250 258 273 285 287 293
120 122 126 124 122 122 116 112 115 123 132 137 132 128 112 90 89 108 118 144 230 254 260 261 264 267 269 273 274 276 280 283 285 287 287 285 285 288 287 283 280 277 274 270 262 259 264 260 254 259 263 254 248 249 247 245 248 253 256 256 255 253 249 240 233 231 234 238 242 249 262 267 261 282
118 113 114 118 118 115 106 96 95 99 106 116 104 92 79 51 28 313 219 232 243 256 263 263 264 266 269 273 274 275 278 280 284 290 290 288 287 288 285 280 277 276 274 271 266 261 260 257 255 260 261 255 250 251 253 253 252 251 252 251 250 251 247 238 229 227 229 232 234 235 235 228 213 88
116 109 105 104 102 102 96 84 78 71 56 49 46 26 1 345 328 311 301 291 282 278 276 274 273 273 275 279 282 282 283 285 291 295 297 297 294 287 279 275 277 278 274 270 265 259 260 264 261 258 258 259 257 260 267 267 259 250 248 246 245 246 244 235 225 222 225 226 223 216 210 202 180 88
107 102 96 93 90 89 86 76 63 50 33 16 6 354 344 340 332 320 315 310 305 299 294 291 287 284 283 285 289 291 290 292 296 300 304 305 296 285 279 277 277 277 275 276 271 259 260 265 262 255 257 265 264 267 273 271 260 249 246 245 243 240 237 230 222 219 221 220 213 205 199 187 164 116
103 97 88 82 77 71 63 44 23 11 3 358 356 352 349 347 340 334 333 331 329 326 322 317 312 308 304 304 305 305 303 302 301 301 306 309 302 291 284 280 276 270 274 280 276 262 258 261 261 260 265 271 273 276 278 272 261 249 243 241 236 231 226 220 218 218 218 213 205 200 195 183 165 138
105 97 83 67 51 31 15 3 358 360 3 6 10 9 6 4 358 356 358 359 359 355 347 343 342 341 341 342 339 335 331 330 327 320 318 321 320 310 296 287 280 275 279 286 282 269 261 258 260 265 265 262 264 267 269 269 263 250 242 235 230 225 216 210 210 213 212 207 204 203 199 188 173 152
97 78 61 43 24 8 6 7 8 17 27 36 43 43 39 35 30 25 20 16 13 11 8 7 5 2 358 354 351 348 345 345 345 340 336 337 343 338 319 302 288 280 283 289 286 274 265 261 263 264 260 257 257 253 251 255 259 252 242 236 233 225 213 207 208 212 213 211 210 211 207 195 182 167
83 68 57 50 42 36 46 59 63 61 62 62 57 50 41 36 32 27 22 19 17 15 10 5 1 360 358 356 355 354 352 350 350 345 338 334 337 341 340 333 318 298 290 287 281 274 270 269 271 268 257 246 237 229 231 236 245 252 246 237 229 216 205 207 212 213 216 215 213 215 211 198 190 185
76 67 60 66 78 84 83 81 76 69 64 58 49 41 33 28 25 22 19 16 9 4 0 358 359 3 5 5 6 4 358 352 347 339 333 330 328 330 337 342 339 324 306 293 284 280 277 273 270 267 256 241 226 229 245 244 244 247 238 225 215 205 202 208 211 213 217 215 214 218 213 200 192 193
64 66 76 81 83 82 78 73 68 63 61 58 55 54 52 47 41 35 28 21 13 10 9 10 11 11 11 8 6 1 353 347 343 337 333 330 327 326 329 334 335 327 311 298 291 287 283 276 268 261 257 254 251 259 261 248 236 232 219 204 199 201 203 205 206 211 216 215 218 220 210 197 192 194
73 84 89 83 76 72 70 70 71 71 69 67 64 62 59 54 50 45 40 34 30 27 24 22 17 13 9 2 355 352 350 349 347 342 336 332 330 330 331 332 335 330 311 294 288 284 280 279 273 265 268 280 282 269 250 223 201 206 209 201 194 196 202 204 206 212 216 214 213 206 192 185 189 195
83 86 81 75 77 81 80 78 76 70 64 59 54 50 46 42 39 39 37 34 33 29 22 16 9 3 357 352 349 348 348 349 349 345 340 335 332 333 334 333 333 331 316 296 286 283 281 282 286 292 296 291 280 259 228 199 184 184 191 195 196 197 199 202 207 213 210 196 182 174 171 175 185 193
80 78 75 75 77 79 77 71 64 56 51 47 43 38 34 30 27 26 22 21 21 17 9 4 0 355 351 349 347 344 342 342 341 339 337 333 328 329 332 330 328 328 321 302 282 275 278 280 289 302 296 274 257 235 210 197 193 187 185 195 208 209 199 194 194 192 183 170 162 163 170 177 189 201
77 73 70 70 69 68 66 62 57 52 49 46 43 40 36 32 29 25 22 19 15 8 3 1 358 355 352 348 345 342 339 337 335 333 330 326 321 321 323 321 319 323 325 309 279 260 258 262 273 285 272 253 245 230 217 210 202 196 195 200 199 186 177 177 174 167 165 165 161 163 171 179 197 216
78 75 73 73 70 67 65 62 58 54 50 47 45 40 36 33 30 25 21 16 9 2 0 360 356 353 352 350 348 348 346 344 344 345 340 331 321 315 314 313 312 316 321 312 278 254 257 263 262 260 244 222 205 210 217 216 200 191 199 198 180 163 156 160 161 158 160 163 159 159 167 178 209 223
80 79 78 74 68 64 62 60 56 52 48 45 43 40 37 37 32 25 20 13 5 0 357 356 355 356 359 359 359 359 358 354 353 352 349 342 331 320 315 312 308 311 316 311 286 266 268 271 259 243 225 204 180 174 193 200 187 160 152 164 165 157 148 149 153 152 152 155 155 162 172 185 231 221
79 76 73 68 62 59 58 56 53 50 47 45 44 42 41 38 31 25 21 11 2 0 1 3 7 11 11 10 9 7 4 1 358 355 353 348 338 327 320 314 309 310 315 311 291 266 256 257 252 236 219 200 190 190 183 169 171 114 128 138 145 145 142 141 141 138 136 137 144 161 177 194 222 206
73 71 68 65 61 58 54 49 44 43 43 43 43 42 40 36 30 23 14 6 3 10 17 21 23 21 17 16 14 11 7 4 1 359 360 359 351 340 330 322 318 319 321 314 290 258 243 244 244 232 216 193 187 203 174 115 80 104 138 141 138 138 140 140 133 126 124 130 143 167 193 214 219 204
71 69 67 64 61 58 53 47 45 45 43 40 42 42 39 34 26 16 10 12 19 26 29 27 24 22 19 18 16 13 11 8 6 6 8 10 8 2 353 342 332 326 324 316 280 246 252 269 255 245 236 208 200 221 171 121 99 106 139 149 144 140 141 140 132 131 141 154 173 208 233 246 245 220
70 68 66 64 62 58 54 54 58 58 48 42 46 47 38 29 23 20 22 29 33 30 27 25 24 22 20 19 18 16 16 16 16 16 16 17 18 17 18 20 21 24 41 60 69 66 54 45 44 39 37 59 344 270 194 140 117 113 128 143 144 145 149 146 135 137 156 196 227 242 245 240 227 209
69 68 65 65 65 62 59 60 59 54 49 50 55 50 37 29 31 32 31 33 33 28 27 28 27 24 24 23 21 21 23 25 25 23 22 25 28 27 29 36 43 55 65 66 63 59 51 46 48 52 52 56 58 86 139 131 120 120 131 138 142 147 155 154 141 136 140 190 224 217 196 181 185 189
66 65 62 63 68 66 64 63 58 54 58 64 61 47 35 35 41 43 39 38 36 34 34 34 31 29 29 28 26 26 28 29 29 27 26 27 31 35 41 45 48 55 61 59 53 49 43 35 37 45 50 66 90 114 128 125 119 120 130 142 148 145 144 152 150 141 133 134 147 150 144 148 174 186
61 60 58 57 67 71 69 69 67 64 67 69 61 48 43 48 53 54 54 53 51 46 43 41 36 32 29 27 27 28 29 29 30 30 29 29 29 34 40 43 43 44 46 43 38 40 42 36 30 35 36 235 217 178 145 146 145 135 130 151 156 146 142 153 160 153 143 145 155 148 133 128 150 175
66 63 57 54 74 88 83 79 78 74 73 72 61 52 53 57 56 56 57 56 54 52 49 47 44 40 35 32 29 27 26 27 27 27 29 30 29 29 32 38 40 38 35 33 31 34 39 37 32 33 37 35 11 300 253 204 183 163 144 153 159 154 150 160 177 197 182 149 139 131 122 117 123 155
74 67 59 66 94 107 98 87 80 76 75 74 65 56 61 62 54 46 45 45 42 42 42 42 41 39 35 33 33 31 29 28 27 27 30 32 30 27 28 31 35 36 35 32 29 27 28 30 29 30 37 43 51 43 9 213 193 178 158 151 162 169 175 181 187 192 176 156 145 139 132 110 61 61
78 65 64 81 103 110 100 91 85 79 78 80 72 62 63 60 45 32 30 28 22 20 20 20 25 28 26 25 27 28 28 29 29 30 31 31 30 30 28 25 24 28 30 28 24 22 23 24 21 20 25 32 39 44 47 109 184 189 184 174 171 175 179 181 178 173 169 166 166 174 199 245 359 15